Tracking 28790 objects as of 18-Apr-2024
HD Live streaming from Space Station
objects crossing your sky now

COSMOS 1275 DEB

Track COSMOS 1275 DEB now!
10-day predictions


NORAD ID: 12663
Int'l Code: 1981-053T
Perigee: 913.5 km
Apogee: 985.8 km
Inclination: 83.0 °
Period: 103.9 minutes
Semi major axis: 7320 km
RCS: 0.0867 m2 (small)
Launch date: June 4, 1981
Source: Commonwealth of Independent States (former USSR) (CIS)
Launch site: PLESETSK MISSILE AND SPACE COMPLEX (PKMTR)

Note: This is SATELLITE DEBRIS
Your satellite tracking list
Your tracking list is empty




NASA's NSSDC Master Catalog

Two Line Element Set (TLE):
1 12663U 81053T   24109.26453969  .00001730  00000-0  14760-2 0  9996
2 12663  82.9558  37.0614 0049385 254.4064 231.6092 13.86051093149926
Source of the keplerian elements: AFSPC